Location: Six Mile Lake
(44.9000°N, 79.7170°W)
Time: 13:14:29
(UTC-04:00)

O/OREOS (USA 219) - Pass Details

Date: 07 July 2022
Orbit: 621 x 646 km, 72.0° (Epoch: 22 May)

Event Time Altitude Azimuth Distance (km) Brightness Sun altitude
Rises 23:12:40 0° 345° (NNW) 2,966 ? -16.3°
Reaches altitude 10° 23:15:19 10° 359° (N) 2,054 ? -16.5°
Maximum altitude 23:19:07 25° 54° (NE) 1,318 ? -16.8°
Enters shadow 23:21:35 16° 97° (E) 1,665 ? -17.1°
